Sitka, AK

10:24 AM AKDT on October 20, 2017 (GMT -0800)
Sitka Rocky Gutierrez

Weather History for PASI - December, 2013

Change the Weather History Date:

Thursday, December 26, 2013

  Actual Average Record
Temperature  
Mean Temperature 40 °F -  
Max Temperature 42 °F 40 °F 52 °F (2001)
Min Temperature 39 °F 32 °F 7 °F (1955)
Degree Days  
Heating Degree Days 24    
Moisture  
Dew Point 40 °F    
Average Humidity 97    
Maximum Humidity 100    
Minimum Humidity 87    
Precipitation  
Precipitation 0.38 in - - ()
Sea Level Pressure  
Sea Level Pressure 29.67 in    
Wind  
Wind Speed 4 mph (SE)    
Max Wind Speed 14 mph    
Max Gust Speed -    
Visibility 4 miles    
Events Rain    
Averages and records for this station are not official NWS values.
T = Trace of Precipitation, MM = Missing Value Source: NWS Daily Summary

Daily Weather History Graph

Daily Weather History Graph

Search for Another Location

Airport or City:

Trip Planner

Search our weather history database for the weather conditions in past years. The results will help you decide how hot, cold, wet, or windy it might be!

Date:

Astronomy

Dec. 26, 2013 Rise Set
Actual Time 8:40 AM AKST 3:24 PM AKST
Civil Twilight 7:50 AM AKST 4:13 PM AKST
Nautical Twilight 6:59 AM AKST 5:04 PM AKST
Astronomical Twilight 6:12 AM AKST 5:51 PM AKST
Moon 1:21 AM AKST (12/26) 11:54 AM AKST (12/26)
Length of Visible Light 8h 23m
Length of Day
6h 44m
Last Quarter, 37% of the Moon is Illuminated
Dec 26
Last Quarter
Jan 1
New
Jan 7
First Quarter
Jan 15
Full
Jan 23
Last Quarter

Hourly Weather History & Observations

Time (AKST) Temp. Windchill Dew Point Humidity Pressure Visibility Wind Dir Wind Speed Gust Speed Precip Events Conditions
12:50 AM 41.0 °F 37.1 °F 39.2 °F 93% 29.62 in 2.5 mi NNW 5.8 mph - 0.02 in Rain Light Rain
12:53 AM 41.0 °F 38.0 °F 41.0 °F 100% 29.62 in 2.5 mi NNW 4.6 mph - 0.02 in Rain Light Rain
1:08 AM 41.0 °F 38.0 °F 41.0 °F 100% 29.62 in 3.0 mi NW 4.6 mph - 0.01 in Rain Light Rain
1:18 AM 41.0 °F 37.1 °F 41.0 °F 100% 29.62 in 3.0 mi NNW 5.8 mph - 0.02 in Rain Light Rain
1:53 AM 41.0 °F - 39.9 °F 96% 29.62 in 3.0 mi Calm Calm - 0.03 in Rain Light Rain
2:04 AM 41.0 °F - 39.9 °F 96% 29.62 in 3.0 mi Calm Calm - 0.00 in Rain Light Rain
2:14 AM 41.0 °F 39.0 °F 39.9 °F 96% 29.63 in 2.5 mi East 3.5 mph - 0.00 in   Overcast
2:46 AM 39.9 °F - 39.9 °F 100% 29.63 in 2.0 mi Calm Calm - 0.01 in   Overcast
2:53 AM 39.9 °F - 39.9 °F 100% 29.63 in 2.0 mi Calm Calm - 0.01 in   Overcast
3:00 AM 39.9 °F - 39.9 °F 100% 29.63 in 2.0 mi Calm Calm - N/A   Overcast
3:18 AM 39.9 °F - 39.9 °F 100% 29.63 in 3.0 mi Calm Calm - 0.00 in Rain Light Rain
3:30 AM 39.9 °F - 39.9 °F 100% 29.62 in 7.0 mi Calm Calm - 0.00 in   Overcast
3:53 AM 39.9 °F 37.8 °F 39.9 °F 100% 29.63 in 8.0 mi East 3.5 mph - 0.00 in   Mostly Cloudy
4:16 AM 39.9 °F - 39.9 °F 100% 29.63 in 5.0 mi Calm Calm - 0.01 in   Overcast
4:33 AM 39.9 °F 37.8 °F 39.9 °F 100% 29.63 in 3.0 mi East 3.5 mph - 0.01 in   Overcast
4:39 AM 39.9 °F 36.7 °F 39.9 °F 100% 29.63 in 2.5 mi East 4.6 mph - 0.01 in   Overcast
4:53 AM 39.9 °F 37.8 °F 39.9 °F 100% 29.63 in 2.0 mi East 3.5 mph - 0.01 in   Overcast
5:10 AM 39.9 °F - 39.9 °F 100% 29.63 in 1.2 mi Calm Calm - N/A   Overcast
5:19 AM 41.0 °F - 39.9 °F 96% 29.64 in 3.0 mi Calm Calm - N/A   Overcast
5:53 AM 41.0 °F 39.0 °F 39.9 °F 96% 29.64 in 5.0 mi ENE 3.5 mph - N/A   Overcast
6:53 AM 39.9 °F 37.8 °F 39.9 °F 100% 29.64 in 10.0 mi East 3.5 mph - N/A   Overcast
7:16 AM 39.9 °F - 39.9 °F 100% 29.64 in 2.5 mi Calm Calm - N/A   Overcast
7:22 AM 39.9 °F - 39.9 °F 100% 29.64 in 3.0 mi Calm Calm - N/A   Overcast
7:53 AM 39.9 °F - 39.9 °F 100% 29.65 in 8.0 mi Calm Calm - N/A   Overcast
8:53 AM 41.0 °F 38.0 °F 39.2 °F 93% 29.66 in 7.0 mi East 4.6 mph - N/A   Overcast
9:00 AM 39.9 °F 36.7 °F 39.9 °F 100% 29.66 in 7.0 mi East 4.6 mph - N/A   Overcast
9:35 AM 41.0 °F 37.1 °F 39.9 °F 96% 29.67 in 7.0 mi East 5.8 mph - N/A   Overcast
9:53 AM 41.0 °F 38.0 °F 39.9 °F 96% 29.68 in 7.0 mi East 4.6 mph - N/A   Overcast
10:53 AM 41.0 °F 37.1 °F 41.0 °F 100% 29.69 in 2.5 mi ESE 5.8 mph - N/A   Overcast
11:11 AM 41.0 °F 37.1 °F 41.0 °F 100% 29.69 in 2.5 mi East 5.8 mph - N/A   Overcast
11:30 AM 41.0 °F 37.1 °F 41.0 °F 100% 29.69 in 7.0 mi ESE 5.8 mph - N/A   Overcast
11:41 AM 42.1 °F 39.2 °F 41.0 °F 96% 29.69 in 5.0 mi SE 4.6 mph - N/A   Overcast
11:53 AM 42.1 °F 38.4 °F 41.0 °F 96% 29.70 in 4.0 mi SSE 5.8 mph - 0.00 in Rain Light Rain
11:55 AM 42.1 °F 37.7 °F 41.0 °F 96% 29.70 in 1.8 mi SSE 6.9 mph - 0.00 in Rain Light Rain
12:19 PM 42.1 °F 38.4 °F 41.0 °F 96% 29.70 in 1.2 mi SE 5.8 mph - 0.02 in Rain Light Rain
12:37 PM 42.1 °F 38.4 °F 41.0 °F 96% 29.70 in 1.5 mi ESE 5.8 mph - 0.04 in Rain Light Rain
12:53 PM 42.1 °F 40.2 °F 41.0 °F 96% 29.70 in 2.5 mi ESE 3.5 mph - 0.05 in Rain Light Rain
12:55 PM 42.1 °F 40.2 °F 41.0 °F 96% 29.70 in 3.0 mi Variable 3.5 mph - 0.00 in Rain Light Rain
1:06 PM 42.1 °F - 42.1 °F 100% 29.70 in 1.5 mi Calm Calm - 0.00 in Rain Light Rain
1:21 PM 42.1 °F 38.4 °F 41.0 °F 96% 29.70 in 1.8 mi South 5.8 mph - 0.00 in Rain Light Rain
1:35 PM 42.1 °F 38.4 °F 41.0 °F 96% 29.70 in 3.0 mi SSE 5.8 mph - 0.01 in Rain Light Rain
1:46 PM 42.1 °F 39.2 °F 41.0 °F 96% 29.70 in 2.0 mi South 4.6 mph - 0.01 in Rain Light Rain
1:53 PM 42.1 °F 37.7 °F 41.0 °F 96% 29.70 in 2.0 mi SSE 6.9 mph - 0.01 in Rain Light Rain
1:58 PM 42.1 °F 40.2 °F 41.0 °F 96% 29.69 in 1.8 mi SE 3.5 mph - 0.01 in Rain Light Rain
2:01 PM 42.1 °F 38.4 °F 41.0 °F 96% 29.69 in 3.0 mi SSE 5.8 mph - 0.01 in Rain Light Rain
2:53 PM 42.1 °F 39.2 °F 41.0 °F 96% 29.69 in 3.0 mi ESE 4.6 mph - 0.01 in   Overcast
3:38 PM 41.0 °F 37.1 °F 41.0 °F 100% 29.69 in 2.0 mi ESE 5.8 mph - 0.00 in Rain Light Rain
3:53 PM 42.1 °F 39.2 °F 41.0 °F 96% 29.70 in 2.0 mi ESE 4.6 mph - 0.00 in   Overcast
4:00 PM 41.0 °F 37.1 °F 41.0 °F 100% 29.69 in 3.0 mi SE 5.8 mph - N/A   Overcast
4:32 PM 41.0 °F 39.0 °F 41.0 °F 100% 29.69 in 2.0 mi SE 3.5 mph - 0.01 in   Overcast
4:53 PM 41.0 °F 39.0 °F 41.0 °F 100% 29.68 in 2.5 mi ESE 3.5 mph - 0.01 in   Overcast
5:10 PM 42.1 °F 39.2 °F 41.0 °F 96% 29.68 in 1.8 mi SSE 4.6 mph - 0.01 in Rain Light Rain
5:38 PM 41.0 °F 38.0 °F 41.0 °F 100% 29.68 in 2.0 mi SSE 4.6 mph - 0.04 in Rain Light Rain
5:45 PM 41.0 °F 38.0 °F 41.0 °F 100% 29.68 in 1.8 mi SE 4.6 mph - 0.05 in Rain Light Rain
5:53 PM 41.0 °F 38.0 °F 41.0 °F 100% 29.68 in 1.5 mi ESE 4.6 mph - 0.06 in Rain Light Rain
6:53 PM 42.1 °F 37.7 °F 41.0 °F 96% 29.68 in 1.8 mi SW 6.9 mph - 0.09 in Rain Light Rain
7:00 PM 42.1 °F 37.1 °F 41.0 °F 96% 29.68 in 3.0 mi SW 8.1 mph - 0.00 in Rain Light Rain
7:09 PM 42.1 °F 37.1 °F 41.0 °F 96% 29.68 in 2.5 mi WSW 8.1 mph - 0.01 in Rain Light Rain
7:13 PM 42.1 °F 38.4 °F 41.0 °F 96% 29.68 in 3.0 mi SW 5.8 mph - 0.01 in Rain Light Rain
7:53 PM 42.1 °F 38.4 °F 41.0 °F 96% 29.69 in 7.0 mi SSW 5.8 mph - 0.02 in Rain Light Rain
8:21 PM 42.1 °F 37.1 °F 41.0 °F 96% 29.70 in 5.0 mi SSW 8.1 mph - 0.00 in Rain Light Rain
8:37 PM 42.1 °F 37.1 °F 41.0 °F 96% 29.70 in 2.5 mi SSW 8.1 mph - 0.01 in Rain Light Rain
8:50 PM 42.8 °F 37.0 °F 39.2 °F 87% 29.71 in 5.0 mi SW 10.4 mph - 0.01 in Rain Light Rain
8:53 PM 42.1 °F 35.2 °F 39.9 °F 92% 29.71 in 8.0 mi SW 12.7 mph - 0.02 in Rain Light Rain
9:16 PM 42.1 °F 35.2 °F 39.9 °F 92% 29.72 in 10.0 mi SW 12.7 mph - 0.00 in   Overcast
9:36 PM 42.1 °F 35.2 °F 39.9 °F 92% 29.72 in 9.0 mi SW 12.7 mph - 0.00 in Rain Light Rain
9:43 PM 42.1 °F 34.9 °F 39.9 °F 92% 29.72 in 9.0 mi SW 13.8 mph - 0.00 in   Overcast
9:53 PM 42.1 °F 36.6 °F 39.9 °F 92% 29.73 in 10.0 mi SW 9.2 mph - 0.00 in   Overcast
10:53 PM 41.0 °F 36.4 °F 39.9 °F 96% 29.73 in 7.0 mi SSE 6.9 mph - 0.00 in   Overcast
11:39 PM 41.0 °F 39.0 °F 39.9 °F 96% 29.74 in 1.8 mi East 3.5 mph - 0.03 in Rain Light Rain
11:50 PM 41.0 °F - 39.2 °F 93% 29.74 in 2.5 mi Calm Calm - 0.04 in Rain Light Rain
11:53 PM 41.0 °F 39.0 °F 39.9 °F 96% 29.74 in 3.0 mi Variable 3.5 mph - 0.04 in Rain Light Rain